Weather Roundup
Issued by NWS Chicago, IL

Home | Current Version | Previous Version | Graphics & Text | Print | Product List | Glossary On
Versions: 1 2 3 4 5 6 7 8 9 10 11 12 13 14 15 16 17 18 19 20 21 22 23 24 25 26 27 28 29 30 31 32 33 34 35 36 37 38 39 40 41 42 43 44 45 46 47 48 49 50
000
NZUS59 KLOT 292321
HRRLOT

CHICAGO AREA WEATHER ROUNDUP
NATIONAL WEATHER SERVICE CHICAGO/ROMEOVILLE IL
600 PM CDT WED JUL 29 2015

NOTE: "FAIR" INDICATES FEW OR NO CLOUDS BELOW 12,000 FEET WITH NO
SIGNIFICANT WEATHER AND/OR OBSTRUCTIONS TO VISIBILITY.

* THESE STATIONS ARE NOT UNDER NWS QUALITY CONTROL. THEY ALSO MAY NOT
  REPORT WEATHER SUCH AS PRECIPITATION OR FOG.

ILZ005-006-012>014-019>023-300000-
NORTHEAST ILLINOIS

CITY           SKY/WX    TMP DP  RH WIND       PRES   REMARKS
OHARE          MOSUNNY   84  52  33 W15G21    29.96S HX  82
MIDWAY         MOSUNNY   86  52  30 W16       29.96S HX  84
AURORA         SUNNY     82  57  42 W15       30.00R HX  82
LANSING*       SUNNY     83  48  29 W13       29.98R HX  81
JOLIET*        SUNNY     84  58  40 W10G20    29.99S HX  84
WAUKEGAN       SUNNY     82  51  34 W9G21     29.94S HX  81
DUPAGE AIRPORT SUNNY     82  50  32 NW14G23   29.98S HX  81
WHEELING       SUNNY     85  47  26 W16G24    29.97S HX  82
KANKAKEE*      SUNNY     82  58  44 NW9G17    30.00S HX  82
MORRIS*        SUNNY     81  61  50 W10G18    29.99S HX  82
LEWIS AIRPORT* SUNNY     82  55  39 W13G20    29.99S HX  81
NORTHERLY IS     N/A     85  49  28 W8          N/A  HX  83
$$

WIZ051-052-058>065-066-070>072-300000-
SOUTHEAST WISCONSIN

CITY           SKY/WX    TMP DP  RH WIND       PRES   REMARKS
MILWAUKEE      MOSUNNY   84  49  29 W18G26    29.92R HX  82
KENOSHA*       SUNNY     82  54  37 W17G23    29.95R HX  81
RACINE*        SUNNY     84  50  30 W14G28    29.95R HX  82
BURLINGTON     SUNNY     81  50  34 W13G18    29.95F HX  80
WAUKESHA       SUNNY     81  50  34 W16G25    29.95S HX  80
WEST BEND      SUNNY     81  46  30 W13G22    29.91S HX  80
$$

INZ001>003-010>013-019-020-300000-
NORTHWEST INDIANA

CITY           SKY/WX    TMP DP  RH WIND       PRES   REMARKS
GARY*          MOSUNNY   86  52  30 W23       29.96S HX  84
MICHIGAN CITY* NOT AVBL
RENSSELAER*    NOT AVBL
VALPARAISO     SUNNY     84  64  50 N3        29.97S HX  85
$$

LMZ740>746-300000-
SOUTHERN LAKE MICHIGAN

STATION/POSITION TIME  SKY/WX   TEMP WIND        PRES    VSBY
                                AIR  DIR/SP/G
                 (UTC)          (F)  (DEG/KT/KT) (MB)    (MI)
HARRISON CRIB    2300            83  270/ 20/ 24   N/A
BURNHAM HARBOR   2300            85  280/  7/ 16   N/A
CALUMET HARBOR   2300            85  270/  7/ 12   N/A
BURNS HARBOR     2200            84   60/  3/  3 1014.9S
MICHIGAN CITY    2300            78  240/  3/  4   N/A
$$

ABBREVIATIONS USED IN REMARKS
   TC - TEMPERATURE IN CELSIUS
  WCI - WIND CHILL INDEX
   HX - HEAT INDEX
  VSB - VISIBILITY
$$



USA.gov is the U.S. government's official web portal to all federal, state and local government web resources and services.